Regional Weather Roundup
Issued by NWS

Home | Current Version | Previous Version | Text Only | Print | Product List | Glossary Off
Versions: 1 2 3 4 5 6 7 8 9 10 11 12 13 14 15 16 17 18 19 20 21 22 23 24 25 26 27 28 29 30 31 32 33 34 35 36 37 38 39 40 41 42 43 44 45 46 47 48 49 50

000
ASUS43 KLOT 312103
RWRIL

ILLINOIS REGIONAL WEATHER ROUNDUP
NATIONAL WEATHER SERVICE CHICAGO/ROMEOVILLE IL
400 PM CDT WED AUG 31 2016

NOTE: "FAIR" INDICATES FEW OR NO CLOUDS BELOW 12,000 FEET WITH NO
SIGNIFICANT WEATHER AND/OR OBSTRUCTIONS TO VISIBILITY.

* THESE STATIONS ARE NOT UNDER NWS QUALITY CONTROL. THEY ALSO MAY NOT
  REPORT WEATHER SUCH AS PRECIPITATION OR FOG.

ILZ001-002-007-009-015-016-024-312200-
NORTHWEST ILLINOIS

CITY           SKY/WX    TMP DP  RH WIND       PRES   REMARKS
MOLINE         CLOUDY    80  62  54 N10       30.07F HX  81
STERLING*      SUNNY     79  62  56 N9        30.08F HX  80
SAVANNA*       SUNNY     78  59  51 N12       30.09S
$$

ILZ003-004-008-010-011-017-018-312200-
NORTH CENTRAL ILLINOIS

CITY           SKY/WX    TMP DP  RH WIND       PRES   REMARKS
ROCKFORD       MOSUNNY   78  56  46 N7G22     30.09F
FREEPORT*      SUNNY     74  58  55 N7        30.11F
ROCHELLE*      SUNNY     76  59  53 N13       30.09S
$$

ILZ005-006-012>014-019>023-312200-
NORTHEAST ILLINOIS

CITY           SKY/WX    TMP DP  RH WIND       PRES   REMARKS
CHICAGO-OHARE  MOSUNNY   75  51  43 NE20G29   30.07S
CHICAGO-MIDWAY PTSUNNY   76  56  49 N18       30.06S
AURORA         CLOUDY    76  60  57 N10       30.06F
LANSING*       MOSUNNY   72  61  68 N10G22    30.06S
JOLIET*        CLOUDY    76  64  65 NE12      30.06R
WAUKEGAN       MOSUNNY   72  55  55 NE12G23   30.08F
DUPAGE AIRPORT SUNNY     77  57  50 N12       30.07S
KANKAKEE*      CLOUDY    77  62  59 N13G18    30.05S
WHEELING       SUNNY     74  52  46 NE14G22   30.09F
MORRIS*        PTSUNNY   78  64  62 NE3       30.04S HX  80
ROMEOVILLE*    PTSUNNY   76  65  69 NE13      30.06S
NORTHERLY ISL    N/A     72  61  68 N17         N/A
$$

LMZ740>746-312200-
SOUTHERN LAKE MICHIGAN

STATION/POSITION SKY/WX   TEMP    WIND        PRES    VSBY  WAVE
                          AIR SEA DIR/SP/G                  HT/PER
                          (F)     (DEG/KT/KT) (MB)    (MI)  (FT/S)
SOUTHERN BUOY              71 75   10/ 19/ 25 1017.2          5/ 6
WILMETTE HARBOR            70 72   30/ 16/ 21   N/A           6/ 6
HARRISON CRIB              71     350/ 21/ 22   N/A
BURNHAM HARBOR             72     340/ 12/ 17   N/A
CALUMET HARBOR             72     320/ 12/ 21 1017.8F
BURNS HARBOR               71     360/ 16/ 22 1017.9F
MICHIGAN CITY              71     350/ 23/ 25   N/A
MICHIGAN CITY 6N           71 68  360/ 19/ 23   N/A           6/ 6
ST. JOSEPH                 70 67  350/ 17/ 23 1016.7F         6/ 5
$$

ILZ025>027-034>036-040-047-049-050-058-095>099-312200-
WEST-CENTRAL ILLINOIS

CITY           SKY/WX    TMP DP  RH WIND       PRES   REMARKS
QUINCY         MOSUNNY   82  65  56 N14       30.05F HX  84
GALESBURG*     MOSUNNY   78  65  65 N13       30.07F
MACOMB*        CLOUDY    80  64  56 N9        30.08S HX  82
JACKSONVILLE*  CLOUDY    81  68  65 N10       30.04R HX  84
$$

ILZ028>032-037-038-041>044-048-051>054-059>061-312200-
CENTRAL ILLINOIS

CITY           SKY/WX    TMP DP  RH WIND       PRES   REMARKS
PONTIAC        CLOUDY    80  67  65 N10G16    30.05S HX  83
BLOOMINGTON    CLOUDY    79  69  71 N15       30.04F HX  81
DECATUR        CLOUDY    84  69  60 N10       30.01S HX  88
PEORIA         MOSUNNY   81  67  62 NE12G17   30.04F HX  83
LACON*         MOSUNNY   79  63  58 N6        30.04S HX  80
LINCOLN*       CLOUDY    80  71  73 N10       30.02S HX  83
SPRINGFIELD    MOSUNNY   83  68  60 N7        30.02F HX  86
TAYLORVILLE    CLOUDY    82  70  66 N10       30.01F HX  86
$$

ILZ033-039-045-046-055>057-062-063-312200-
EAST-CENTRAL ILLINOIS

CITY           SKY/WX    TMP DP  RH WIND       PRES   REMARKS
CHAMPAIGN      PTSUNNY   82  70  66 N14       30.01S HX  86
RANTOUL*       PTSUNNY   82  69  64 N13       30.01S HX  85
MATTOON        CLOUDY    82  69  64 N9        29.99S HX  85
PARIS*         CLOUDY    82  70  67 CALM      29.99S HX  86
$$

ILZ079-100>102-312200-
SOUTHWEST ILLINOIS

CITY           SKY/WX    TMP DP  RH WIND       PRES   REMARKS
ALTON          LGT RAIN  70  70 100 SE6       30.03F
BELLEVILLE     PTSUNNY   77  70  80 N8        30.01R
CAHOKIA*       CLOUDY    78  69  73 NE6       30.03R HX  80
SPARTA*        CLOUDY    77  69  78 N13G20    30.03R
$$

ILZ064>066-069>071-074>076-080>082-084>086-088>090-092>094-312200-
SOUTH-CENTRAL ILLINOIS

CITY           SKY/WX    TMP DP  RH WIND       PRES   REMARKS
CARBONDALE     PTSUNNY   86  70  58 N8        29.97F HX  90
EFFINGHAM*     LGT RAIN  79  72  79 NW3       30.01S HX  82
MARION         MOSUNNY   86  72  62 NW9       29.98F HX  92
MT. VERNON     CLOUDY    79  66  65 N6        30.00R THUNDER HX  81
CENTRALIA*     RAIN      72  71  96 NW7       30.01S
SALEM*         HVY RAIN  75  71  88 NW8       30.01R
METROPOLIS*    MOSUNNY   90  71  54 NW7       29.96S HX  96
$$

ILZ067-068-072-073-078-083-087-091-312200-
SOUTHEAST ILLINOIS

CITY           SKY/WX    TMP DP  RH WIND       PRES   REMARKS
LAWRENCEVILLE  MOSUNNY   87  70  56 N12       29.96F HX  92
FLORA*         HVY RAIN  76  71  84 CALM      29.99S
FAIRFIELD*     MOSUNNY   84  73  67 CALM      29.96S HX  90
HARRISBURG*    LGT RAIN  82  74  76 CALM      29.97S HX  88
ROBINSON*      MOSUNNY   82  72  70 NW8       29.97S HX  87
CARMI*         MOSUNNY   87  73  63 N7        29.95F HX  93
$$

ABBREVIATIONS USED IN REMARKS
   TC - TEMPERATURE IN CELSIUS
  WCI - WIND CHILL INDEX
   HX - HEAT INDEX
  VSB - VISIBILITY
$$





USA.gov is the U.S. government's official web portal to all federal, state and local government web resources and services.